Flag for U.S.A. Weather past 2 weeks in Concord, California, U.S.A.

Now
71 °F

Sunny.


Feels Like: 77 °F
Forecast: 56 / 83 °F
Wind: 6 mph from South

Location: Buchanan Field

Current Time: Aug 23, 2014 at 11:12:29 AM

Latest Report: Aug 23, 2014 at 10:53 AM


Visibility: 10 mi

Pressure: 29.90 "Hg

Humidity: 55%

Dew point: 54 °F

Location of ConcordLocation

Historic Weather in Concord — Graph

°F

Concord temperature yesterday

Maximum temperature yesterday: 82 °F (at 2:53 PM)
Minimum temperature yesterday: 60 °F (at 10:53 PM)
Average temperature yesterday: 69 °F

Past Weeks' High & Low Weather Summary

 TemperatureHumidityPressure
High91 °F (Aug 8, 3:53 PM)93% (Aug 14, 5:53 AM)29.99 "Hg (Aug 14, 5:53 AM)
Low55 °F (Aug 23, 5:53 AM)9% (Aug 16, 6:53 PM)29.73 "Hg (Aug 18, 5:53 PM)
Average68 °F64%29.87 "Hg
* Reported Aug 8 9:53 AM — Aug 23 9:53 AM, Concord, Weather by CustomWeather, © 2014

Note: Actual official high and low records may vary slightly from our data, if they occured in-between our weather recording intervals... More about our weather records

Advertising

Concord weather history for previous 24 hours

 ConditionsComfort  
Time TempWeatherWind HumidityBarometerVisibility
9:53 AM
Aug 23
68 °FSunny.6 mph61%29.91 "Hg10 mi
8:53 AM64 °FSunny.6 mph70%29.90 "Hg10 mi
7:53 AM60 °FSunny.3 mph80%29.90 "Hg10 mi
6:53 AM55 °FPassing clouds.No wind90%29.88 "Hg10 mi
5:53 AM55 °FClear.No wind87%29.87 "Hg10 mi
4:53 AM56 °FClear.3 mph90%29.86 "Hg10 mi
3:53 AM57 °FClear.3 mph87%29.85 "Hg10 mi
2:53 AM57 °FClear.6 mph87%29.86 "Hg10 mi
1:53 AM59 °FClear.6 mph84%29.86 "Hg10 mi
12:53 AM60 °FClear.10 mph80%29.85 "Hg10 mi
11:53 PM
Aug 22
60 °FClear.8 mph80%29.87 "Hg10 mi
10:53 PM60 °FClear.14 mph83%29.86 "Hg10 mi
9:53 PM61 °FClear.15 mph81%29.85 "Hg10 mi
8:53 PM63 °FClear.18 mph75%29.85 "Hg10 mi
7:53 PM65 °FSunny.18 mph70%29.83 "Hg10 mi
6:53 PM68 °FSunny.17 mph68%29.83 "Hg10 mi
5:53 PM75 °FSunny.15 mph54%29.82 "Hg10 mi
4:53 PM80 °FSunny.13 mph42%29.81 "Hg10 mi
3:53 PM82 °FSunny.12 mph40%29.81 "Hg10 mi
2:53 PM82 °FSunny.16 mph40%29.82 "Hg10 mi
1:53 PM81 °FSunny.15 mph39%29.83 "Hg10 mi
12:53 PM78 °FSunny.14 mph40%29.84 "Hg10 mi
11:53 AM76 °FSunny.12 mph45%29.87 "Hg10 mi
Weather by CustomWeather, © 2014

See weather overviewHow to use our weather pages